Погода в Апе

Латвия     57°32′23″N   26°42′08″E
темп.,
°C
ветер,
м/с
пор.,
м/с
влажн.,
%
обл.,
%
осадки,
мм/ч
давл.,
гПа
погр.,
м
15 мая, сб
сб1500:00+10вюв279826 0.0 1006167
03:00+10вюв269816 0.0 1006140
06:00+9вюв249780 0.1 100596
09:00+13юв248885 0.6 1005369
12:00+17юв2272100 0.6 1005945
15:00+17з227998 3.8 1004562
18:00+15зсз3791100 4.3 1004376
21:00+13сз26975 4.9 1005189
16 мая, вс
вс1600:00+8з26946 0.0 1006105
03:00+6з24964 0.0 100786
06:00+7зсз12955 0.0 100863
09:00+13зюз127513 0.0 1009320
12:00+18юз245018 0.0 10091383
15:00+17ююз246355 0.0 1009655
18:00+18ююв3466100 0.4 1008812
21:00+13юв238926 0.8 100961
17 мая, пн
пн1700:00+11юв239636 0.0 100957
03:00+10вюв379798 0.0 1009134
06:00+11вюв4119492 0.0 1008285
09:00+14юв41189100 0.1 1007442
12:00+19ююв61175100 0.6 10061302
15:00+16ююв51088100 3.7 1006898
18:00+14юз1398100 12.1 1006136
21:00+13с2499100 13.0 1005177
18 мая, вт
вт1800:00+12с2599100 0.3 1004251
03:00+12ссз1399100 0.4 1003141
06:00+11ссз1499100 0.1 1002209
09:00+11сз2699100 5.1 999305
12:00+11сз41098100 5.3 998414
15:00+10з51098100 12.9 997579
18:00+10з41098100 14.9 1000622
21:00+9юз2696100 14.9 1003177
19 мая, ср
ср1900:00+7юз239681 0.0 100461
03:00+6юз119514 0.0 100510
06:00+8юз1193100 0.0 100629
09:00+9зсз1294100 0.0 1007150
12:00+11з2390100 0.1 1007450
15:00+17зсз1359100 0.1 10061230
18:00+15з347292 0.9 1006777
21:00+10з249178 1.7 100785